595 Farra d'Isonzo. Observers G. Lombardi, E. Pettarin, F. Piani.
0.40-m f/4.5 reflector + CCD.
608 Haleakala-NEAT/MSSS. Observers E. F. Helin, S. Pravdo, K. Lawrence,
P. Kervin, R. Maeda, J. Africano, M. Hicks. 1.2-m reflector + CCD.
636 Essen. Observers A. Knofel, M. Frohlich. Measurers A. Knofel, T. Payer.
0.318-m f/5.7 reflector + CCD.
642 Oak Bay, Victoria. Observer C. E. Spratt. 0.235-m f/5.6
Schmidt-Cassegrain + CCD.
644 Palomar Mountain/NEAT. Observers E. F. Helin, S. Pravdo, K. Lawrence,
M. Hicks, E. Hovland, T. Bickler, J. Schroeder, L. Scherr, R. Thicksten,
A. Deetz. 1.2-m Schmidt + CCD.
649 Powell Observatory, Louisburg. Observer K. Smalley. 0.75-m Newtonian
+ CCD.
651 Grasslands Observatory, Tucson. Observer J. E. McGaha. 0.62-m f/5.1
reflector + CCD.
670 Camarillo. Observer J. E. Rogers. 0.30-m f/6.7 Helin Telescope + CCD.
678 Fountain Hills. Observer C. W. Juels. 0.313-m f/5.44 reflector + CCD.
699 Lowell Observatory-LONEOS. Observers B. A. Skiff, B. W. Koehn. 0.59-m
LONEOS Schmidt + CCD.
704 Lincoln Laboratory ETS, New Mexico. Observers M. Blythe, F. Shelly,
M. Bezpalko, R. Huber, L. Manguso, S. Adams, J. Piscitelli. Measurers
J. Stuart, R. Sayer, J. B. Evans, H. Viggh. 1.0-m f/2.15 reflector + CCD.
711 McDonald Observatory. Observer P. J. Shelus. 0.76-m reflector + CCD.
850 Cordell-Lorenz Observatory, Sewanee. Observer D. T. Durig. 0.3-m f/5.75
Schmidt-Cassegrain + CCD.
859 Wykrota Observatory-CEAMIG. Observer C. Jacques. 0.3-m f/3.3
Schmidt-Cassegrain + CCD.
860 Valinhos. Observer P. R. Holvorcem. 0.36-m f/3.6 Schmidt-Cassegrain
+ CCD.
946 Ametlla de Mar. Observer J. Nomen. 0.40-m f/2.0 Schmidt + CCD.
Orbital elements:
C/2001 RX14 (LINEAR)
T 2003 Jan. 19.036 TT Marsden
q 2.05903 (2000.0) P Q
Peri. 121.496 -0.686300 -0.716588
Node 14.171 +0.363353 -0.486057
e 1.0 Incl. 30.560 +0.630053 -0.500250
From 141 observations 2001 Aug. 28-Oct. 25.
Ephemeris:
C/2001 RX14 (LINEAR)
Date TT R. A. (2000) Decl. Delta r Elong. Phase m1 m2
2001 10 18 01 42.56 +23 15.1 4.273 5.246 166.0 2.6 16.9
2001 10 28 01 35.55 +23 08.5 4.189 5.163 167.1 2.5 16.7
2001 11 07 01 28.59 +22 56.3 4.137 5.080 160.0 3.8 16.6
2001 11 17 01 22.11 +22 40.5 4.115 4.996 150.1 5.7 16.6
2001 11 27 01 16.53 +22 23.5 4.120 4.913 139.5 7.5 16.5
2001 12 07 01 12.18 +22 07.9 4.149 4.829 128.9 9.1 16.4
2001 12 17 01 09.27 +21 56.2 4.197 4.745 118.4 10.5 16.4
2001 12 27 01 07.92 +21 50.5 4.258 4.661 108.3 11.6 16.3
2002 01 06 01 08.17 +21 52.1 4.328 4.577 98.4 12.3 16.3
2002 01 16 01 09.98 +22 02.0 4.401 4.492 89.0 12.6 16.2
2002 01 26 01 13.28 +22 20.6 4.472 4.408 79.9 12.7 16.2
2002 02 05 01 17.95 +22 47.9 4.538 4.323 71.2 12.5 16.1
2002 02 15 01 23.91 +23 23.4 4.596 4.238 62.9 12.0 16.1
2002 02 25 01 31.06 +24 06.9 4.641 4.154 55.0 11.3 16.0
2002 03 07 01 39.28 +24 57.7 4.673 4.069 47.5 10.4 15.9
2002 03 17 01 48.52 +25 55.2 4.690 3.984 40.3 9.3 15.9
2002 03 27 01 58.70 +26 58.6 4.690 3.899 33.7 8.2 15.8
Brian G. Marsden (C) Copyright 2001 MPC M.P.E.C. 2001-U46
Read MPEC 2001-U45
Read MPEC 2001-U47
Our Web policy. Index to the CBAT/MPC/ICQ pages.